Location: Cantaing
(50.1487°N, 3.1675°E)
Time: 15:14:20
(UTC+00:00)

Okean 1-7 - Visible Passes

Search period start: 11 April 2026 00:00
Search period end: 21 April 2026 00:00
Orbit: 564 x 588 km, 82.5° (Epoch: 11 April)

Date Brightness Start Highest point End Pass type
(mag) Time Alt. Az. Time Alt. Az. Time Alt. Az.
11 Apr 5.3 19:59:28 10° NW 20:02:45 23° W 20:06:01 10° SW visible
12 Apr 5.7 20:03:39 10° NW 20:06:29 18° W 20:09:18 10° SW visible
13 Apr 5.9 20:07:59 10° NW 20:10:11 14° W 20:12:23 10° WSW visible
14 Apr 6.2 20:12:46 10° WNW 20:13:52 11° W 20:14:58 10° W visible
